Regional Weather Roundup
Issued by NWS

Home | Current Version | Previous Version | Graphics & Text | Print | Product List | Glossary On
Versions: 1 2 3 4 5 6 7 8 9 10 11 12 13 14 15 16 17 18 19 20 21 22 23 24 25 26 27 28 29 30 31 32 33 34 35 36 37 38 39 40 41 42 43 44 45 46 47 48 49 50
000
ASUS43 KMKX 171900
RWRWI

WISCONSIN REGIONAL WEATHER ROUNDUP
NATIONAL WEATHER SERVICE MILWAUKEE/SULLIVAN WI
100 PM CST TUE JAN 17 2017

NOTE: "FAIR" INDICATES FEW OR NO CLOUDS BELOW 12,000 FEET WITH NO
SIGNIFICANT WEATHER AND/OR OBSTRUCTIONS TO VISIBILITY.

WIZ001-002-006>008-014>016-023>028-172000-
NORTHWEST WISCONSIN

CITY           SKY/WX    TMP DP  RH WIND       PRES   REMARKS
SUPERIOR ARPT  CLOUDY    32  29  90 CALM      29.95F FOG
ASHLAND        SUNNY     36  29  75 CALM      29.92F
HAYWARD        SUNNY     41  24  51 CALM      29.89F
SIREN          SUNNY     37  24  60 CALM      29.93F
CUMBERLAND     CLOUDY    32  30  93 CALM      29.92S
RICE LAKE      CLOUDY    35  30  80 NW3       29.93S
CHETEK         NOT AVBL
LADYSMITH      CLOUDY    36  32  85 NW6       29.91S WCI  32
EAU CLAIRE     CLOUDY    36  36 100 N5        29.90S FOG     WCI  32
MENOMONIE      CLOUDY    36  36 100 W6        29.91F WCI  31
NEW RICHMOND   MOSUNNY   33  29  88 NW9       29.94F FOG     WCI  25
OSCEOLA        SUNNY     33  26  76 NW3       29.97F
$$

WIZ003>005-009-010-017-018-172000-
NORTH CENTRAL WISCONSIN

CITY           SKY/WX    TMP DP  RH WIND       PRES   REMARKS
MANITOWISH WTR NOT AVBL
ARBOR VITAE    CLOUDY    39  31  72 CALM      29.86S
WOODRUFF       CLOUDY    39  31  72 CALM      29.86S
RHINELANDER    CLOUDY    39  32  76 N6        29.85R WCI  35
EAGLE RIVER    CLOUDY    38  29  69 NE5       29.84S WCI  34
LAND O LAKES   CLOUDY    38  28  64 CALM      29.87S
PHILLIPS       MOSUNNY   37  32  82 N3        29.87S
TOMAHAWK       CLOUDY    39  32  75 CALM      29.85S
MEDFORD        CLOUDY    34  32  92 CALM      29.85S
MERRILL        CLOUDY    36  34  92 NE6         N/A  WCI  31
$$

WIZ029-030-035-036-043>047-172000-
CENTRAL WISCONSIN

CITY           SKY/WX    TMP DP  RH WIND       PRES   REMARKS
WAUSAU         CLOUDY    35  33  92 NE6       29.83F FOG     WCI  30
MOSINEE        CLOUDY    34  34 100 N6        29.85S FOG     WCI  29
MARSHFIELD     CLOUDY    35  32  88 N6        29.84S FOG     WCI  30
STEVENS POINT  CLOUDY    32  32 100 CALM      29.85F FOG
WAUPACA        CLOUDY    36  34  92 CALM      29.85S FOG
WAUTOMA        CLOUDY    36  35  96 N5        29.85F WCI  32
WISC RAPIDS    CLOUDY    35  34  96 N6        29.86S WCI  30
CAMP DOUGLAS   DRIZZLE   34  32  93 W5        29.86F FOG     WCI  30
$$

WIZ011>013-019>022-031-037>040-048>050-172000-
NORTHEAST WISCONSIN

CITY           SKY/WX    TMP DP  RH WIND       PRES   REMARKS
ANTIGO         CLOUDY    33  32  99 NE5       29.83S FOG     WCI  28
SHAWANO        CLOUDY    35  33  93 N3        29.85F FOG
OCONTO         CLOUDY    33  33  97 N6        29.84S WCI  28
STURGEON BAY   CLOUDY    36  35  96 N8        29.82F FOG     WCI  30
GREEN BAY      CLOUDY    36  35  96 N8        29.82F FOG     WCI  30
MANITOWOC      MIX PCPN  36  34  93 MISG      29.82S VSB 1
APPLETON         N/A     34  34 100 N7        29.82S FOG     WCI  28
CLINTONVILLE   CLOUDY    34  32  93 N6        29.84F FOG     WCI  29
OSHKOSH        MIX PCPN  34  32  92 NW6       29.83F VSB 1   WCI  29
$$

WIZ032>034-041-042-053>061-172000-
SOUTHWEST WISCONSIN

CITY           SKY/WX    TMP DP  RH WIND       PRES   REMARKS
LA CROSSE      MIX PCPN  36  34  92 NW6       29.90S FOG     WCI  31
SPARTA         DRIZZLE   33  33 100 CALM      29.90R
VIROQUA        CLOUDY    33  33 100 W5        29.87R VSB 3/4 WCI  28
BOSCOBEL       CLOUDY    35  33  92 W3        29.89F FOG
PRAIRIE DU CHI CLOUDY    34  33  96 W6        29.90F FOG     WCI  29
PLATTEVILLE    CLOUDY    34  34 100 W10       29.88S WCI  26
$$

WIZ056-057-062-063-064-067-068-172000-
SOUTH CENTRAL WISCONSIN

CITY           SKY/WX    TMP DP  RH WIND       PRES   REMARKS
REEDSBURG      LGT RAIN  33  33 100 NW3       29.86F
BARABOO/DELLS  DRZL/FOG  33  33  99 NW3       29.85F VSB 1
LONE ROCK      CLOUDY    36  34  93 W6        29.87F FOG     WCI  31
MINERAL POINT  FOG       34  34 100 W9        29.86S VSB 1   WCI  26
MADISON        FOG       34  33  96 NW7       29.85F VSB 3/4 WCI  28
MIDDLETON      CLOUDY    36  36 100 NW6       29.85F WCI  31
WATERTOWN      CLOUDY    34  34 100 NW7       29.83F FOG     WCI  28
MONROE         FOG       34  34 100 W12       29.85S VSB 1/2 WCI  25
JANESVILLE     CLOUDY    37  37 100 NW8       29.85S FOG     WCI  31
$$

WIZ051-052-058>065-066-070>072-172000-
SOUTHEAST WISCONSIN

CITY           SKY/WX    TMP DP  RH WIND       PRES   REMARKS
MILWAUKEE      CLOUDY    39  36  89 NW10      29.82F WCI  32
WAUKESHA       CLOUDY    34  34 100 W9        29.83F FOG     WCI  26
MILWAUKEE/TIMM CLOUDY    36  34  93 W8        29.83F WCI  29
RACINE           N/A    N/A N/A N/A MISG      29.84S
KENOSHA        CLOUDY    37  35  92 W12       29.83R FOG     WCI  29
FOND DU LAC    FOG       34  32  92 NW6       29.84S VSB 1   WCI  29
SHEBOYGAN      FOG       34  33  96 NW7       29.81F VSB 1/4 WCI  28
WEST BEND      CLOUDY    34  34 100 W9        29.82F FOG     WCI  26
JUNEAU         FOG       33  32  99 NW5       29.84F VSB 3/4 WCI  28
$$

LSZ147-162-172000-
LAKE SUPERIOR

STATION/POSITION TIME  TEMP    WIND        PRES    WAVE
                       AIR SEA DIR/SP/G            HT/PER
                 (UTC) (F)     (DEG/KT/KT) (MB)    (FT/S)
DEVILS ISLAND    1800   33      10/  4/  5 1014.5F
PORT WING        1840   32     260/  3/  7 1013.9F
SAXON HARBOR     1840   34     360/  1/  3 1013.5F
$$

LMZ867-665-643>646-172000-
LAKE MICHIGAN

STATION/POSITION TIME  TEMP    WIND        PRES    WAVE
                       AIR SEA DIR/SP/G            HT/PER
                 (UTC) (F)     (DEG/KT/KT) (MB)    (FT/S)
NORTHPORT PIER   1840   34      50/ 10/ 13 1010.5S
SISTER BAY       1850   35     360/  8/ 14   N/A
KEWAUNEE LAKESHO 1830   36      10/  6/  9 1009.1F
SHEBOYGAN LAKESH 1800   36     310/  8/  9 1010.1S
PORT WASHINGTON  1840   37     290/  6/  9 1010.8F
MILWAUKEE LAKESH 1830   38     300/  7/  9   N/A
KENOSHA   LAKESH 1800   37     280/  8/ 12 1010.5
$$

TC  - TEMPERATURE IN CELSIUS
VSB - VISIBILITY IN STATUTE MILES
WCI - WIND CHILL INDEX
HX  - HEAT INDEX





USA.gov is the U.S. government's official web portal to all federal, state and local government web resources and services.